This is the latest recevied weather packets stored in our database for station/object KF4CQ. If no packets are shown the sender has not sent any weather packets the latest 10 day(s).
| Time | Temp. | Humidity | Pressure | Rain* | Wind** | Luminosity | Snow |
|---|---|---|---|---|---|---|---|
| 1777636412 | 22.22° C | 98% | 1013.1 hPa | 0 mm | - | 44 W/m² | - |
| 1777636107 | 22.22° C | 99% | 1013.2 hPa | 0 mm | - | 38 W/m² | - |
| 1777635802 | 22.22° C | 99% | 1013.2 hPa | 0 mm | - | 33 W/m² | - |
| 1777635499 | 22.22° C | 99% | 1013.3 hPa | 0 mm | - | 27 W/m² | - |
| 1777635196 | 22.22° C | 99% | 1013.2 hPa | 0 mm | - | 22 W/m² | - |
| 1777634893 | 22.22° C | 99% | 1013.1 hPa | 0 mm | - | 17 W/m² | - |
| 1777634590 | 21.67° C | 99% | 1013.1 hPa | 0 mm | - | 13 W/m² | - |
| 1777634287 | 21.67° C | 99% | 1013 hPa | 0 mm | - | 10 W/m² | - |
| 1777633983 | 21.67° C | 99% | 1012.9 hPa | 0 mm | - | 8 W/m² | - |
| 1777633680 | 21.67° C | 99% | 1012.8 hPa | 0 mm | - | 6 W/m² | - |
| 1777633378 | 21.67° C | 99% | 1012.9 hPa | 0 mm | - | 3 W/m² | - |
| 1777633076 | 21.67° C | 99% | 1012.7 hPa | 0 mm | - | 2 W/m² | - |
| 1777632771 | 21.67° C | 99% | 1012.7 hPa | 0 mm | - | 1 W/m² | - |
| 1777632467 | 21.67° C | 99% | 1012.4 hPa | 0 mm | - | 1 W/m² | - |
| 1777632165 | 21.67° C | 99% | 1012.6 hPa | 0 mm | - | 0 W/m² | - |
| 1777631862 | 21.67° C | 99% | 1012.3 hPa | 0 mm | - | 0 W/m² | - |
| 1777631561 | 21.67° C | 99% | 1012.4 hPa | 0 mm | - | 0 W/m² | - |
| 1777631257 | 22.22° C | 99% | 1012.3 hPa | 0 mm | - | 0 W/m² | - |
| 1777630955 | 22.22° C | 99% | 1012.3 hPa | 0 mm | - | 0 W/m² | - |
| 1777630650 | 22.22° C | 99% | 1012.2 hPa | 0 mm | - | 0 W/m² | - |
| 1777630347 | 22.22° C | 99% | 1012.1 hPa | 0 mm | - | 0 W/m² | - |
| 1777630045 | 22.22° C | 98% | 1012.3 hPa | 0 mm | - | 0 W/m² | - |
| 1777629742 | 22.22° C | 98% | 1012.1 hPa | 0 mm | - | 0 W/m² | - |
| 1777629439 | 22.22° C | 98% | 1012.2 hPa | 0 mm | - | 0 W/m² | - |
| 1777629135 | 22.22° C | 98% | 1012.4 hPa | 0 mm | - | 0 W/m² | - |
* Rain latest hour (hover to see other rain measurements)
** Current wind speed in m/s (hover to see current wind gust speed)